Dumas, Arkansas, United States (71639)
Lat: 33.89N, Lon: 91.49W
Wx Zone: ARZ065
Local Info
Past Weather Observations for Friday, April 18, 2014

NOTE: This archive is for the closest National Weather Service station to Dumas. Information may differ from the station used for current weather conditions.

Time Weather Temperature Dewpoint Humidity Pressure Winds Precip Visibility
23:53
Clear
Light Rain
55°F / 13°C 52°F / 11°C 88% 30.18 in
(1022 mb)
Calm 0.00 in
(0.00 mm)
10SM
22:53
Clear
55°F / 13°C 52°F / 11°C 88% 30.18 in
(1022 mb)
Calm - 10SM
21:53
Mostly Cloudy
59°F / 15°C 52°F / 11°C 77% 30.18 in
(1022 mb)
Calm - 10SM
20:53
Clear
57°F / 14°C 52°F / 11°C 82% 30.15 in
(1021 mb)
Calm - 10SM
19:53
Clear
61°F / 16°C 54°F / 12°C 77% 30.15 in
(1021 mb)
Calm - 10SM
18:53
Mostly Cloudy
66°F / 19°C 54°F / 12°C 64% 30.12 in
(1020 mb)
Calm - 10SM
17:53
Overcast
72°F / 22°C 50°F / 10°C 47% 30.12 in
(1020 mb)
Calm - 10SM
16:53
Partly Cloudy
73°F / 23°C 48°F / 9°C 41% 30.12 in
(1020 mb)
ENE 5.8 mph
(ENE 9 kph)
- 10SM
15:53
Mostly Cloudy
73°F / 23°C 48°F / 9°C 41% 30.12 in
(1020 mb)
E 8.1 mph
(E 13 kph)
- 10SM
14:53
Partly Cloudy
73°F / 23°C 48°F / 9°C 41% 30.15 in
(1021 mb)
NE 6.9 mph
(NE 11 kph)
- 10SM
13:53
Mostly Cloudy
72°F / 22°C 48°F / 9°C 44% 30.18 in
(1022 mb)
NE 5.8 mph
(NE 9 kph)
- 10SM
12:53
Partly Cloudy
73°F / 23°C 48°F / 9°C 41% 30.18 in
(1022 mb)
NE 11.5 mph
(NE 19 kph)
- 10SM
11:53
Mostly Cloudy
72°F / 22°C 50°F / 10°C 47% 30.21 in
(1023 mb)
NE 11.5 mph
(NE 19 kph)
- 10SM
10:53
Partly Cloudy
70°F / 21°C 52°F / 11°C 53% 30.21 in
(1023 mb)
NE 9.2 mph
(NE 15 kph)
0.00 in
(0.00 mm)
10SM
09:53
Mostly Cloudy
66°F / 19°C 54°F / 12°C 64% 30.21 in
(1023 mb)
Variable 6.9 mph
(Variable 11 kph)
0.00 in
(0.00 mm)
10SM
08:53
Partly Cloudy
64°F / 18°C 54°F / 12°C 68% 30.21 in
(1023 mb)
NW 6.9 mph
(NW 11 kph)
- 10SM
07:53
Overcast
63°F / 17°C 52°F / 11°C 68% 30.21 in
(1023 mb)
E 3.5 mph
(E 6 kph)
- 10SM
06:53
Mostly Cloudy
57°F / 14°C 52°F / 11°C 82% 30.21 in
(1023 mb)
Calm - 10SM
05:53
Mostly Cloudy
55°F / 13°C 50°F / 10°C 82% 30.21 in
(1023 mb)
Calm - 10SM
04:53
Overcast
54°F / 12°C 52°F / 11°C 94% 30.18 in
(1022 mb)
Calm - 10SM
03:53
Overcast
55°F / 13°C 50°F / 10°C 82% 30.18 in
(1022 mb)
Calm - 10SM
02:53
Overcast
54°F / 12°C 50°F / 10°C 88% 30.18 in
(1022 mb)
NNW 3.5 mph
(NNW 6 kph)
- 10SM
01:53
Mostly Cloudy
55°F / 13°C 50°F / 10°C 82% 30.18 in
(1022 mb)
Calm - 10SM
00:53
Mostly Cloudy
55°F / 13°C 50°F / 10°C 82% 30.18 in
(1022 mb)
Calm - 10SM
Time Weather Temperature Dewpoint Humidity Pressure Winds Precip Visibility


Weather for websites

WeatherForYou.com, LLC is not responsible for any damages or problems caused by this service. Current weather conditions are obtained from the closest station including government and personal stations which may have varying degrees of accuracy. Weather forecasts are derived from the NOAA NDFD. Like all things, this site belongs to Jesus Christ... He just trusts me to maintain it. If you have any questions or comments email webmaster@weatherforyou.com

Copyright © 2014, WeatherForYou.com LLC. All rights reserved.